Weather History for Port Aransas, TX

Change the Weather History Date:

Tuesday, October 1, 2013

  Actual Average (KCRP) Record (KCRP)
Temperature  
Mean Temperature 83 °F 78 °F  
Max Temperature 87 °F 87 °F 96 °F (1989)
Min Temperature 79 °F 69 °F 52 °F (1985)
Degree Days  
Heating Degree Days 0 0  
Month to date heating degree days 0  
Since 1 July heating degree days 0  
Cooling Degree Days 18 13  
Month to date cooling degree days 13  
Year to date cooling degree days 3056  
Growing Degree Days 33 (Base 50)    
Moisture  
Dew Point 75 °F    
Average Humidity 79    
Maximum Humidity 89    
Minimum Humidity 71    
Precipitation  
Precipitation 0.03 in 0.13 in 2.47 in (1958)
Month to date precipitation 0.13  
Year to date precipitation 24.45  
Snow  
Snow 0.00 in - - ()
Month to date snowfall  
Since 1 July snowfall  
Since 1 September snowfall  
Snow Depth -    
Sea Level Pressure  
Sea Level Pressure 29.86 in    
Wind  
Wind Speed 11 mph (South)    
Max Wind Speed 16 mph    
Max Gust Speed 22 mph    
Visibility 10 miles    
Events Thunderstorm    
T = Trace of Precipitation, MM = Missing Value Source: NWS Daily Summary

Daily Weather History Graph

Daily Weather History Graph

Search for Another Location

Airport:

Trip Planner

Search our weather history database for the weather conditions in past years. The results will help you decide how hot, cold, wet, or windy it might be!

Date:

Astronomy

Oct. 01, 2013 Rise Set
Actual Time 7:21 AM CDT 7:14 PM CDT
Civil Twilight 6:57 AM CDT 7:37 PM CDT
Nautical Twilight 6:30 AM CDT 8:04 PM CDT
Astronomical Twilight 6:03 AM CDT 8:31 PM CDT
Moon 4:11 AM CDT (10/1) 5:06 PM CDT (10/1)
Length of Visible Light 12h 39m
Length of Day
11h 52m
Waning Crescent, 12% of the Moon is Illuminated
Oct 1
Waning Crescent
Oct 4
New
Oct 11
First Quarter
Oct 18
Full
Oct 26
Last Quarter

Hourly Weather History & Observations

Time (CDT) Temp. Heat Index Dew Point Humidity Pressure Visibility Wind Dir Wind Speed Gust Speed Precip Events Conditions
12:15 AM 81.5 °F 88.5 °F 76.1 °F 84% 29.84 in 10.0 mi South 8.1 mph - N/A   Scattered Clouds
12:35 AM 81.5 °F 88.3 °F 75.9 °F 83% 29.84 in 10.0 mi South 5.8 mph - N/A   Scattered Clouds
12:55 AM 81.7 °F 89.2 °F 76.8 °F 85% 29.84 in 10.0 mi South 8.1 mph - N/A   Overcast
1:15 AM 81.9 °F 90.0 °F 77.2 °F 86% 29.84 in 10.0 mi South 12.7 mph - N/A   Overcast
1:35 AM 81.9 °F 89.5 °F 76.5 °F 84% 29.83 in 10.0 mi South 12.7 mph - N/A   Overcast
1:55 AM 81.5 °F 88.5 °F 76.1 °F 84% 29.83 in 10.0 mi South 12.7 mph 21.9 mph N/A   Mostly Cloudy
2:15 AM 81.5 °F 88.5 °F 76.3 °F 84% 29.83 in 10.0 mi South 13.8 mph 19.6 mph N/A Thunderstorm Mostly Cloudy
2:35 AM 81.7 °F 89.2 °F 76.8 °F 85% 29.83 in 10.0 mi South 13.8 mph 19.6 mph N/A Thunderstorm Overcast
2:55 AM 81.7 °F 88.5 °F 75.6 °F 82% 29.82 in 10.0 mi SSW 12.7 mph - N/A Thunderstorm Overcast
3:15 AM 81.5 °F 87.8 °F 75.2 °F 81% 29.83 in 10.0 mi SSW 10.4 mph 17.3 mph N/A   Mostly Cloudy
3:35 AM 80.8 °F 86.5 °F 75.0 °F 83% 29.83 in 10.0 mi SW 8.1 mph - N/A Thunderstorm Scattered Clouds
3:55 AM 79.9 °F - 75.2 °F 86% 29.83 in 10.0 mi SW 9.2 mph - N/A Thunderstorm Scattered Clouds
4:15 AM 79.9 °F - 75.2 °F 86% 29.83 in 10.0 mi SSW 9.2 mph - N/A Thunderstorm Thunderstorm
4:35 AM 79.7 °F - 72.3 °F 78% 29.83 in 10.0 mi South 8.1 mph - N/A Thunderstorm Mostly Cloudy
4:55 AM 80.8 °F 86.5 °F 75.2 °F 83% 29.83 in 10.0 mi South 10.4 mph - N/A   Mostly Cloudy
5:15 AM 79.0 °F - 71.6 °F 78% 29.83 in 10.0 mi South 10.4 mph 19.6 mph N/A   Mostly Cloudy
5:35 AM 79.9 °F - 75.2 °F 86% 29.83 in 10.0 mi South 11.5 mph - N/A   Scattered Clouds
5:55 AM 80.2 °F 85.7 °F 75.6 °F 86% 29.83 in 10.0 mi SSW 5.8 mph - N/A   Mostly Cloudy
6:15 AM 79.7 °F - 75.6 °F 87% 29.83 in 10.0 mi SW 5.8 mph - N/A   Mostly Cloudy
6:35 AM 79.7 °F - 75.7 °F 88% 29.83 in 10.0 mi SW 6.9 mph - N/A   Mostly Cloudy
6:55 AM 79.3 °F - 75.6 °F 88% 29.84 in 10.0 mi SW 5.8 mph - N/A   Mostly Cloudy
7:15 AM 79.0 °F - 75.4 °F 89% 29.85 in 10.0 mi SSW 6.9 mph - N/A   Mostly Cloudy
7:35 AM 80.1 °F 85.2 °F 75.6 °F 86% 29.85 in 10.0 mi SW 5.8 mph - N/A   Overcast
7:55 AM 79.9 °F - 75.6 °F 87% 29.86 in 10.0 mi SSW 6.9 mph - N/A   Mostly Cloudy
8:15 AM 80.4 °F 86.1 °F 75.7 °F 86% 29.87 in 10.0 mi South 11.5 mph - N/A   Overcast
8:35 AM 79.5 °F - 75.9 °F 89% 29.88 in 10.0 mi South 12.7 mph 16.1 mph 0.02 in Thunderstorm Unknown
8:55 AM 79.0 °F - 74.1 °F 85% 29.88 in 10.0 mi South 13.8 mph 17.3 mph 0.03 in   Overcast
9:15 AM 79.2 °F - 74.3 °F 85% 29.88 in 10.0 mi South 10.4 mph - N/A   Overcast
9:35 AM 79.2 °F - 75.2 °F 88% 29.89 in 10.0 mi South 11.5 mph - N/A   Overcast
9:55 AM 80.6 °F 85.7 °F 74.3 °F 81% 29.88 in 10.0 mi South 9.2 mph - N/A   Mostly Cloudy
10:15 AM 82.4 °F 90.6 °F 76.6 °F 83% 29.89 in 10.0 mi South 12.7 mph - N/A Thunderstorm Mostly Cloudy
10:35 AM 83.5 °F 91.2 °F 75.4 °F 76% 29.90 in 10.0 mi SSE 10.4 mph - N/A Thunderstorm Mostly Cloudy
10:55 AM 83.8 °F 92.8 °F 76.3 °F 78% 29.89 in 10.0 mi South 10.4 mph - N/A   Scattered Clouds
11:15 AM 82.8 °F 91.0 °F 76.3 °F 81% 29.90 in 10.0 mi South 9.2 mph - N/A Thunderstorm Scattered Clouds
11:35 AM 83.3 °F 92.1 °F 76.5 °F 80% 29.90 in 10.0 mi South 10.4 mph - N/A   Scattered Clouds
11:55 AM 85.6 °F 95.9 °F 76.6 °F 74% 29.90 in 10.0 mi South 9.2 mph - N/A   Scattered Clouds
12:15 PM 86.9 °F 98.8 °F 77.4 °F 73% 29.89 in 10.0 mi South 12.7 mph - N/A   Scattered Clouds
12:35 PM 86.7 °F 97.8 °F 76.8 °F 72% 29.90 in 10.0 mi South 12.7 mph 18.4 mph N/A   Scattered Clouds
12:55 PM 86.0 °F 96.4 °F 76.3 °F 73% 29.89 in 10.0 mi SSE 11.5 mph 16.1 mph N/A   Scattered Clouds
1:15 PM 87.1 °F 98.3 °F 76.8 °F 71% 29.88 in 10.0 mi SSE 12.7 mph 18.4 mph N/A   Scattered Clouds
1:35 PM 86.9 °F 97.8 °F 76.5 °F 71% 29.87 in 10.0 mi South 15.0 mph 19.6 mph N/A   Mostly Cloudy
1:55 PM 86.9 °F 97.8 °F 76.6 °F 71% 29.86 in 10.0 mi South 13.8 mph 19.6 mph N/A   Scattered Clouds
2:15 PM 85.8 °F 96.4 °F 76.6 °F 74% 29.86 in 10.0 mi SSE 11.5 mph 21.9 mph N/A   Scattered Clouds
2:35 PM 85.6 °F 95.0 °F 75.7 °F 72% 29.86 in 10.0 mi SSE 12.7 mph 18.4 mph N/A   Clear
2:55 PM 85.8 °F 95.9 °F 76.5 °F 73% 29.85 in 10.0 mi South 11.5 mph - N/A Thunderstorm Clear
3:15 PM 85.8 °F 95.9 °F 76.1 °F 73% 29.84 in 10.0 mi SSE 12.7 mph 19.6 mph N/A   Clear
3:35 PM 86.2 °F 96.0 °F 75.7 °F 71% 29.83 in 10.0 mi SSE 12.7 mph 18.4 mph N/A   Clear
3:55 PM 85.1 °F 94.1 °F 75.7 °F 73% 29.83 in 10.0 mi SSE 15.0 mph - N/A   Clear
4:15 PM 86.0 °F 96.4 °F 76.3 °F 73% 29.82 in 10.0 mi South 13.8 mph - N/A   Clear
4:35 PM 86.0 °F 95.5 °F 75.6 °F 71% 29.82 in 10.0 mi SSE 12.7 mph - N/A   Clear
4:55 PM 86.2 °F 96.0 °F 75.9 °F 71% 29.82 in 10.0 mi SSE 12.7 mph 19.6 mph N/A   Clear
5:15 PM 84.4 °F 93.1 °F 75.6 °F 75% 29.83 in 10.0 mi SSE 12.7 mph 17.3 mph N/A   Clear
5:35 PM 84.0 °F 92.2 °F 75.2 °F 75% 29.83 in 10.0 mi SSE 10.4 mph 16.1 mph N/A   Clear
5:55 PM 83.5 °F 90.6 °F 74.5 °F 74% 29.84 in 10.0 mi SE 10.4 mph - N/A   Clear
6:15 PM 83.5 °F 90.6 °F 74.3 °F 74% 29.84 in 10.0 mi SE 10.4 mph - N/A   Scattered Clouds
6:35 PM 83.3 °F 90.5 °F 74.5 °F 75% 29.84 in 10.0 mi ESE 11.5 mph - N/A Thunderstorm Mostly Cloudy
6:55 PM 83.3 °F 90.5 °F 74.5 °F 75% 29.84 in 10.0 mi ESE 12.7 mph - N/A   Scattered Clouds
7:15 PM 82.8 °F 89.5 °F 74.7 °F 76% 29.85 in 10.0 mi ESE 16.1 mph - N/A   Scattered Clouds
7:35 PM 82.6 °F 89.7 °F 75.2 °F 78% 29.86 in 10.0 mi ESE 15.0 mph 19.6 mph N/A   Scattered Clouds
7:55 PM 82.4 °F 89.0 °F 74.5 °F 77% 29.86 in 10.0 mi ESE 15.0 mph 20.7 mph N/A   Scattered Clouds
8:15 PM 82.4 °F 88.4 °F 73.9 °F 75% 29.86 in 10.0 mi SE 12.7 mph 19.6 mph N/A   Scattered Clouds
8:35 PM 82.4 °F 87.9 °F 73.0 °F 73% 29.86 in 10.0 mi SE 12.7 mph 19.6 mph N/A   Scattered Clouds
8:55 PM 82.4 °F 87.7 °F 72.7 °F 72% 29.88 in 10.0 mi SE 12.7 mph 20.7 mph N/A   Clear
9:15 PM 82.4 °F 88.4 °F 73.6 °F 75% 29.88 in 10.0 mi SE 15.0 mph 20.7 mph N/A   Clear
9:35 PM 82.4 °F 87.9 °F 72.9 °F 73% 29.88 in 10.0 mi SSE 15.0 mph - N/A   Clear
9:55 PM 81.9 °F 87.0 °F 72.9 °F 74% 29.88 in 10.0 mi SE 11.5 mph 20.7 mph N/A   Clear
10:15 PM 81.9 °F 86.6 °F 72.1 °F 72% 29.88 in 10.0 mi SSE 13.8 mph 20.7 mph N/A   Clear
10:35 PM 81.7 °F 86.7 °F 72.5 °F 74% 29.88 in 10.0 mi SSE 13.8 mph 19.6 mph N/A   Clear
10:55 PM 81.7 °F 86.3 °F 72.0 °F 72% 29.89 in 10.0 mi SSE 13.8 mph 19.6 mph N/A   Clear
11:15 PM 81.5 °F 85.9 °F 71.6 °F 72% 29.90 in 10.0 mi SSE 13.8 mph 19.6 mph N/A   Clear
11:35 PM 81.7 °F 86.9 °F 73.0 °F 75% 29.90 in 10.0 mi SSE 13.8 mph 19.6 mph N/A   Clear
11:55 PM 81.7 °F 86.3 °F 71.8 °F 72% 29.90 in 10.0 mi South 12.7 mph 18.4 mph N/A   Clear